Flag for Indonesia Weather past 2 weeks in Makassar, South Sulawesi, Indonesia

Now
72 °F

Passing clouds.


Feels Like: 75 °F
Forecast: 76 / 94 °F
Wind: 2 mph from North

Location: Ujung Pandang / Hasanuddin

Current Time: Oct 22, 2014 at 6:34:44 AM

Latest Report: Oct 22, 2014 at 6:00 AM


Visibility: 5 mi

Pressure: 29.86 "Hg

Humidity: 65%

Dew point: 59 °F

Location of MakassarLocation

Historic Weather in Makassar — Graph

°F

Makassar temperature yesterday

Maximum temperature yesterday: 97 °F (at 10:00 AM)
Minimum temperature yesterday: 72 °F (at 5:00 AM)
Average temperature yesterday: 85 °F

Past Weeks' High & Low Weather Summary

 TemperatureHumidityPressure
High100 °F (Oct 19, 12:00 PM)94% (Oct 8, 4:30 AM)29.92 "Hg (Oct 8, 4:30 AM)
Low64 °F (Oct 11, 6:00 AM)18% (Oct 10, 5:30 PM)29.71 "Hg (Oct 8, 3:00 PM)
Average84 °F59%29.82 "Hg
* Reported Oct 7 5:00 AM — Oct 22 5:30 AM, Makassar, Weather by CustomWeather, © 2014

Note: Actual official high and low records may vary slightly from our data, if they occured in-between our weather recording intervals... More about our weather records

Advertising

Makassar weather history for previous 24 hours

 ConditionsComfort  
Time TempWeatherWind HumidityBarometerVisibility
5:30 AM
Oct 22
72 °FPassing clouds.7 mph65%29.86 "Hg5 mi
5:00 AM73 °FPassing clouds.5 mph61%29.83 "Hg5 mi
4:30 AM77 °FPassing clouds.2 mph51%29.83 "Hg5 mi
4:00 AM79 °FPassing clouds.3 mph45%29.83 "Hg5 mi
3:30 AM81 °FPassing clouds.2 mph42%29.83 "Hg5 mi
3:00 AM84 °FPassing clouds.7 mph37%29.83 "Hg5 mi
2:30 AM81 °FPassing clouds.6 mph39%29.83 "Hg5 mi
2:00 AM84 °FPassing clouds.7 mph35%29.83 "Hg5 mi
1:30 AM84 °FPassing clouds.8 mph35%29.83 "Hg5 mi
1:00 AM82 °FPassing clouds.7 mph35%29.83 "Hg5 mi
12:30 AM84 °FPassing clouds.7 mph31%29.83 "Hg5 mi
12:00 AM86 °FPassing clouds.7 mph31%29.86 "Hg5 mi
11:30 PM
Oct 21
86 °FPassing clouds.10 mph29%29.86 "Hg5 mi
11:00 PM86 °FPassing clouds.9 mph29%29.89 "Hg5 mi
10:30 PM86 °FPassing clouds.8 mph29%29.89 "Hg5 mi
10:00 PM86 °FPassing clouds.8 mph29%29.89 "Hg5 mi
9:30 PM88 °FPassing clouds.9 mph25%29.89 "Hg5 mi
9:00 PM86 °FPassing clouds.7 mph27%29.86 "Hg5 mi
8:30 PM86 °FPassing clouds.8 mph29%29.86 "Hg5 mi
8:00 PM86 °FPassing clouds.7 mph31%29.86 "Hg5 mi
7:30 PM84 °FPassing clouds.3 mph40%29.86 "Hg5 mi
7:00 PM86 °FPassing clouds.5 mph46%29.86 "Hg5 mi
6:30 PM86 °FPassing clouds.5 mph62%29.83 "Hg4 mi
6:00 PM88 °FPassing clouds.6 mph59%29.83 "Hg4 mi
5:30 PM90 °FPassing clouds.5 mph49%29.83 "Hg5 mi
5:00 PM90 °FPassing clouds.6 mph52%29.80 "Hg5 mi
3:30 PM91 °FPassing clouds.8 mph49%29.80 "Hg5 mi
3:00 PM91 °FPassing clouds.10 mph49%29.83 "Hg5 mi
2:30 PM93 °FPassing clouds.13 mph47%29.83 "Hg5 mi
2:00 PM93 °FPassing clouds.14 mph47%29.83 "Hg5 mi
1:30 PM93 °FPassing clouds.13 mph47%29.83 "Hg6 mi
1:00 PM95 °FPassing clouds.13 mph44%29.83 "Hg6 mi
12:30 PM93 °FPassing clouds.10 mph47%29.86 "Hg6 mi
12:00 PM91 °FPassing clouds.12 mph52%29.86 "Hg6 mi
11:00 AM95 °FScattered clouds.13 mph36%29.89 "HgN/A
10:30 AM97 °FPassing clouds.9 mph34%29.89 "Hg6 mi
10:00 AM97 °FPassing clouds.9 mph34%29.89 "Hg6 mi
9:30 AM93 °FPassing clouds.6 mph41%29.92 "Hg6 mi
9:00 AM91 °FPassing clouds.3 mph46%29.92 "Hg6 mi
8:30 AM90 °FPassing clouds.3 mph49%29.92 "Hg6 mi
8:00 AM88 °FPassing clouds.2 mph55%29.92 "Hg6 mi
7:30 AM84 °FPassing clouds.2 mph62%29.92 "Hg6 mi
7:00 AM79 °FPassing clouds.2 mph74%29.89 "Hg6 mi
6:30 AM73 °FPassing clouds.2 mph83%29.89 "Hg6 mi
6:00 AM73 °FPassing clouds.No wind83%29.89 "Hg6 mi
Weather by CustomWeather, © 2014

See weather overviewHow to use our weather pages